DateTimeUTC,F1_A11,F1_S11,BsB_S11,BsG_S11,BsR_S11,BbsB_S11,BbsG_S11,BbsR_S11,BaB_A11,BaG_A11,BaR_A11,Tu_S11,T_S11,Uu_S11,U_S11,P_S11,T1_A11
2021-07-26T09:00:00Z,00000200,20000000,,,,,,,-000.04,-000.25,0000.00,18.0,24.8,06.7,04.4,0675.2,31.0
2021-07-26T09:01:00Z,00000200,20000000,,,,,,,-000.11,0000.04,0000.07,18.0,24.9,06.7,04.4,0675.2,31.0
2021-07-26T09:02:00Z,00000200,20000000,,,,,,,0000.07,0000.21,-000.03,18.0,24.9,06.7,04.4,0675.2,31.0
2021-07-26T09:03:00Z,00000200,60000000,,,,,,,0000.43,0000.14,0000.37,18.0,24.9,06.7,04.4,0675.2,31.0
2021-07-26T09:04:00Z,00000200,40000000,0001.35,0000.18,0000.14,0000.44,0000.19,-000.01,0000.31,0000.46,0000.28,18.1,24.7,06.9,04.7,0676.4,31.0
2021-07-26T09:05:00Z,00000200,00000000,0000.87,0000.63,0000.24,-000.00,0000.17,-000.11,0000.20,0000.36,0000.26,18.2,24.6,07.1,04.8,0676.4,31.0
2021-07-26T09:06:00Z,00000200,00000000,0000.42,0000.52,0000.24,0000.23,0000.18,-000.19,0000.02,-000.04,0000.12,18.2,24.6,07.1,04.8,0676.4,31.0
2021-07-26T09:07:00Z,00000200,00000000,0000.56,0000.65,0000.11,-000.12,0000.05,-000.13,0000.38,-000.03,0000.02,18.2,24.6,07.3,04.9,0676.5,31.0
2021-07-26T09:08:00Z,00000200,00000000,0000.20,0000.60,0000.29,0000.01,0000.26,0000.23,0000.46,0000.47,-000.02,18.2,24.6,07.1,04.8,0676.5,31.0
2021-07-26T09:09:00Z,00000200,00000000,0000.59,0000.18,0000.45,-000.03,0000.12,0000.04,-000.23,0000.11,0000.49,18.2,24.6,07.3,04.9,0676.5,31.0
2021-07-26T09:10:00Z,00000200,00000000,0000.21,0000.36,0000.28,0000.28,0000.29,0000.16,0000.72,0000.04,0000.04,18.2,24.6,07.4,05.0,0676.5,31.0
2021-07-26T09:11:00Z,00000200,00000000,0000.76,0000.39,0000.25,0000.33,0000.00,0000.05,-000.20,0000.09,0000.03,18.2,24.6,07.3,05.0,0676.5,31.0
2021-07-26T09:12:00Z,00000200,00000000,0000.84,0000.27,0000.30,-000.33,-000.10,0000.01,-000.11,0000.20,-000.07,18.2,24.6,07.2,04.9,0676.5,31.0
2021-07-26T09:13:00Z,00000200,00000000,0001.18,0000.60,0000.16,0000.16,0000.27,0000.22,0000.38,0000.12,0000.09,18.2,24.5,07.1,04.8,0676.5,31.0
2021-07-26T09:14:00Z,00000200,00000000,0000.76,0000.56,0000.39,0000.03,0000.07,0000.01,-000.51,-000.02,-000.22,18.2,24.6,07.0,04.7,0676.5,31.0
2021-07-26T09:15:00Z,00000200,00000000,0000.45,0000.37,0000.21,-000.19,0000.14,0000.11,0000.21,0000.02,0000.45,18.2,24.6,07.0,04.8,0676.5,31.0
2021-07-26T09:16:00Z,00000200,00000000,0000.07,0000.49,0000.80,0000.09,-000.10,0000.15,0000.51,0000.01,-000.01,18.2,24.6,07.0,04.8,0676.5,31.0
2021-07-26T09:17:00Z,00000200,00000000,0000.30,0000.40,0000.38,0000.03,-000.02,0000.06,0000.03,0000.16,0000.00,18.2,24.5,07.1,04.8,0676.5,31.0
2021-07-26T09:18:00Z,00000200,00000000,0000.90,0000.42,0000.54,0000.42,-000.04,0000.26,-000.30,-000.07,-000.11,18.2,24.6,07.0,04.7,0676.5,31.0
2021-07-26T09:19:00Z,00000200,00000000,0000.18,0000.27,0000.70,0000.02,0000.43,-000.31,-000.00,0000.06,-000.03,18.2,24.6,07.0,04.7,0676.6,31.0
2021-07-26T09:20:00Z,00000200,00000000,0001.00,0000.13,0000.16,-000.22,0000.27,-000.21,0000.25,0000.04,0000.20,18.2,24.6,06.8,04.6,0676.6,31.0
2021-07-26T09:21:00Z,00000200,00000000,0000.72,0000.67,0000.23,-000.51,0000.01,0000.27,0000.03,0000.22,0000.37,18.2,24.6,06.9,04.7,0676.6,31.0
2021-07-26T09:22:00Z,00000200,00000000,0001.15,0000.34,0000.47,0000.45,0000.45,-000.03,0000.10,-000.12,-000.33,18.2,24.5,06.9,04.7,0676.6,31.0
2021-07-26T09:23:00Z,00000200,00000000,0000.40,0000.41,0000.11,-000.12,0000.24,-000.09,-000.12,-000.08,0000.06,18.2,24.5,07.0,04.7,0676.6,31.0
2021-07-26T09:24:00Z,00000200,00000000,0000.03,0000.37,0000.23,0000.26,-000.04,0000.11,0000.75,0000.60,0000.24,18.2,24.5,06.9,04.6,0676.6,31.0
2021-07-26T09:25:00Z,00000200,00000000,-000.25,0000.28,0000.28,0000.22,0000.04,0000.11,-000.21,-000.03,-000.12,18.2,24.5,06.8,04.6,0676.6,31.0
2021-07-26T09:26:00Z,00000200,00000000,0000.58,0000.11,0000.19,-000.56,0000.29,-000.04,0000.17,-000.12,0000.42,18.2,24.6,06.8,04.6,0676.6,31.0
2021-07-26T09:27:00Z,00000200,00000000,0000.67,0000.52,0000.27,-000.19,0000.13,0000.18,0000.26,-000.00,-000.37,18.2,24.5,06.8,04.6,0676.6,31.0
2021-07-26T09:28:00Z,00000200,00000000,0000.81,0000.35,0000.57,0000.10,0000.18,0000.04,0000.09,0000.58,0000.38,18.2,24.5,06.8,04.6,0676.6,31.0
2021-07-26T09:29:00Z,00000200,00000000,0000.42,0000.48,0000.07,0000.32,0000.38,0000.08,0000.11,-000.10,0000.16,18.2,24.5,06.8,04.6,0676.6,31.0
2021-07-26T09:30:00Z,00000200,00000000,0000.29,0000.51,0000.34,0000.64,0000.06,0000.08,-000.03,0000.19,-000.15,18.2,24.5,06.8,04.6,0676.6,31.0
2021-07-26T09:31:00Z,00000200,00000000,0001.25,0000.14,0000.43,0000.19,0000.17,0000.20,0000.41,0000.22,0000.21,18.2,24.5,06.8,04.6,0676.6,31.0
2021-07-26T09:32:00Z,00000200,00000000,0000.72,0000.53,0000.32,0000.08,0000.12,0000.17,0000.07,0000.00,0000.27,18.2,24.5,06.9,04.7,0676.6,31.0
2021-07-26T09:33:00Z,00000200,00000000,0001.16,0000.43,0000.35,-000.25,0000.38,0000.60,0000.03,0000.40,0000.00,18.2,24.5,07.0,04.7,0676.6,31.0
2021-07-26T09:34:00Z,00000200,00000000,0000.97,0000.48,0000.44,-000.20,0000.27,-000.17,0000.46,0000.20,0000.36,18.2,24.5,07.0,04.8,0676.6,31.0
2021-07-26T09:35:00Z,00000200,00000000,0001.04,0000.83,0000.32,-000.76,0000.16,-000.04,0000.49,0000.48,0000.03,18.2,24.5,07.1,04.8,0676.6,31.0
2021-07-26T09:36:00Z,00000200,00000000,0000.83,0000.32,0000.38,0000.19,0000.60,-000.15,0000.11,-000.20,0000.47,18.2,24.5,07.3,04.9,0676.6,31.0
2021-07-26T09:37:00Z,00000200,00000000,0000.83,0000.64,0000.39,0000.15,0000.18,0000.06,0000.29,0000.50,0000.17,18.2,24.5,07.4,05.0,0676.6,31.0
2021-07-26T09:38:00Z,00000200,00000000,0000.71,0000.27,-000.13,-000.06,0000.22,-000.30,-000.16,0000.05,-000.01,18.2,24.5,07.4,05.0,0676.6,31.0
2021-07-26T09:39:00Z,00000200,00000000,0000.95,0000.52,0000.38,0000.39,0000.26,0000.11,-000.26,-000.33,-000.29,18.2,24.5,07.1,04.8,0676.6,31.0
2021-07-26T09:40:00Z,00000200,00000000,0000.41,0000.71,0000.24,0000.17,0000.07,0000.07,0000.35,-000.07,0000.06,18.2,24.5,06.8,04.6,0676.6,31.0
2021-07-26T09:41:00Z,00000200,00000000,0000.44,0000.65,-000.12,-000.33,0000.17,0000.21,-000.23,0000.41,-000.33,18.2,24.5,06.8,04.6,0676.6,31.0
2021-07-26T09:42:00Z,00000200,00000000,0000.55,0000.35,-000.07,-000.15,0000.12,0000.10,0000.36,-000.23,0000.51,18.2,24.5,06.7,04.5,0676.6,31.0
2021-07-26T09:43:00Z,00000200,00000000,-000.21,0000.58,0000.43,0000.19,-000.04,-000.03,-000.13,0000.35,0000.24,18.2,24.5,06.8,04.6,0676.7,31.0
2021-07-26T09:44:00Z,00000200,00000000,0000.78,0000.55,0000.20,-000.00,0000.14,0000.07,0000.25,-000.17,-000.41,18.2,24.5,06.8,04.6,0676.7,31.0
2021-07-26T09:45:00Z,00000200,00000000,0000.20,0000.70,0000.22,0000.18,0000.16,0000.10,0000.22,0000.30,0000.47,18.2,24.5,06.7,04.6,0676.7,31.0
2021-07-26T09:46:00Z,00000200,00000000,0000.93,0000.31,0000.27,-000.60,-000.01,-000.03,-000.25,-000.10,-000.29,18.2,24.5,06.7,04.6,0676.7,31.0
2021-07-26T09:47:00Z,00000200,00000000,0000.45,0000.27,0000.03,0000.32,0000.13,-000.23,0000.25,0000.21,0000.38,18.2,24.5,06.7,04.5,0676.7,31.0
2021-07-26T09:48:00Z,00000200,00000000,0000.63,0000.51,0000.31,-000.52,0000.33,0000.23,-000.16,0000.12,-000.02,18.2,24.6,06.7,04.5,0676.7,31.0
2021-07-26T09:49:00Z,00000200,00000000,0000.76,0000.57,-000.03,-000.14,0000.19,-000.21,0000.51,-000.02,0000.23,18.2,24.5,06.8,04.6,0676.7,31.0
2021-07-26T09:50:00Z,00000200,00000000,0000.34,0000.57,-000.05,0000.30,0000.22,-000.21,-000.03,0000.14,-000.02,18.2,24.5,06.8,04.6,0676.7,31.0
2021-07-26T09:51:00Z,00000200,00000000,0000.28,0000.50,0000.36,-000.30,-000.08,-000.02,-000.01,0000.11,0000.17,18.2,24.5,06.7,04.6,0676.7,31.0
2021-07-26T09:52:00Z,00000200,00000000,0000.33,0000.56,0000.32,0000.20,0000.23,0000.18,0000.23,0000.47,-000.21,18.2,24.5,06.8,04.6,0676.7,31.0
2021-07-26T09:53:00Z,00000200,00000000,0000.93,0000.80,0000.58,-000.20,0000.34,0000.07,0000.35,-000.19,0000.27,18.2,24.5,06.9,04.7,0676.7,31.0
2021-07-26T09:54:00Z,00000200,00000000,0000.15,0000.40,0000.16,-000.42,0000.30,0000.35,0000.23,0000.41,0000.45,18.2,24.5,06.8,04.6,0676.7,31.0
2021-07-26T09:55:00Z,00000200,00000000,0000.93,0000.51,0000.76,-000.14,-000.03,0000.22,0000.20,0000.12,-000.09,18.2,24.5,06.6,04.5,0676.7,31.0
2021-07-26T09:56:00Z,00000200,00000000,0001.13,0000.40,0000.52,0000.34,-000.17,0000.03,0000.33,0000.04,0000.05,18.2,24.5,06.7,04.6,0676.7,31.0
2021-07-26T09:57:00Z,00000200,40000000,,,,,,,-000.02,0000.12,0000.34,18.3,24.6,06.5,04.4,0676.7,31.0
2021-07-26T09:58:00Z,00000200,60000000,,,,,,,-000.07,0000.07,-000.19,18.0,24.7,06.8,04.5,0675.7,31.0
2021-07-26T09:59:00Z,00000200,20000000,,,,,,,0000.05,0000.07,-000.03,18.0,24.8,06.7,04.4,0675.7,31.0
